Powrót do katalogu

ARVAKER-3

AktywnyNaukaSSO
NORAD 64566·PAYLOAD·🇳🇴 Norway

Wystrzelony Jun 23, 2025 z Vandenberg Space Force Base

Loading…

Następne Przeloty (najbliższe 24 godziny)

TLE

ŚwieżeSource: Space-Track

Epoka: Sep 14, 2026, 14:01 UTC

1 64566U 25135AQ  26257.58435929  .00001585  00000-0  15436-3 0  9991
2 64566  97.7797  10.7634 0002323  44.6153 315.5254 14.93911102 67222

Śledź ARVAKER-3 w czasie rzeczywistym z AllMySat

Download on the App Store